Location: Newark
(31.7692°N, 106.4397°W)
Time: 02:53:45
(UTC+00:00)

LightSail 2 - Visible Passes

Search period start: 16 December 2019 00:00
Search period end: 26 December 2019 00:00
Orbit: 696 x 730 km, 24.0° (Epoch: 15 December)

Date Brightness Start Highest point End Pass type
(mag) Time Alt. Az. Time Alt. Az. Time Alt. Az.
23 Dec 7.7 13:32:01 10° SSW 13:35:16 17° SSE 13:38:31 10° ESE visible
24 Dec 7.7 12:34:55 10° S 12:37:14 13° SSE 12:39:33 10° SE visible
25 Dec 7.2 13:20:07 10° SW 13:24:05 23° SSE 13:28:05 10° ESE visible
